User: anonymous   Login
Location: Mactaquac Provincial Park
(45.9573°N, 66.8897°W)
Time: 23:23:04
(UTC-04:00)
Language:

Cosmos 1867 - Orbit

View from above orbital plane
View from above orbital plane
View from above satellite
View from above satellite

Ground track
Ground track

The orbit data is extracted from the following two-line orbital elements,

1 18187U 87060A   16038.83611795 -.00000107  00000-0 -26131-5 0  9992
2 18187  65.0101 175.0789 0020524 275.5126  84.3617 14.31069751493112
Epoch (UTC): 07 February 2016 20:04:00
Eccentricity: 0.0020524
inclination: 65.0101°
perigee height: 773 km
apogee height: 803 km
right ascension of ascending node: 175.0789°
argument of perigee: 275.5126°
revolutions per day: 14.31069751
mean anomaly at epoch: 84.3617°
orbit number at epoch: 49311

The dashed part of the orbit path shows where the satellite is in the earth's shadow,  

DLR